Henderson, NV

3:48 PM PDT on May 26, 2017 (GMT -0700)
Henderson

Weather History for KHND - October, 2012

Change the Weather History Date:

Monday, October 15, 2012

  Actual Average (KLAS) Record (KLAS)
Temperature  
Mean Temperature 68 °F -  
Max Temperature 81 °F 79 °F 94 °F (1958)
Min Temperature 55 °F 53 °F 43 °F (1966)
Cooling Degree Days 3    
Growing Degree Days 18 (Base 50)    
Moisture  
Dew Point 46 °F    
Average Humidity 48    
Maximum Humidity 69    
Minimum Humidity 24    
Precipitation  
Precipitation 0.00 in - - ()
Sea Level Pressure  
Sea Level Pressure 29.93 in    
Wind  
Wind Speed 6 mph (South)    
Max Wind Speed 12 mph    
Max Gust Speed -    
Visibility 10 miles    
Events      
Averages and records for this station are not official NWS values.
T = Trace of Precipitation, MM = Missing Value Source: NWS Daily Summary

Daily Weather History Graph

Daily Weather History Graph

Search for Another Location

Airport or City:

Trip Planner

Search our weather history database for the weather conditions in past years. The results will help you decide how hot, cold, wet, or windy it might be!

Date:

Astronomy

Oct. 15, 2012 Rise Set
Actual Time 6:47 AM PDT 6:03 PM PDT
Civil Twilight 6:21 AM PDT 6:29 PM PDT
Nautical Twilight 5:52 AM PDT 6:59 PM PDT
Astronomical Twilight 5:22 AM PDT 7:29 PM PDT
Moon 7:01 AM PDT (10/15) 6:09 PM PDT (10/15)
Length of Visible Light 12h 07m
Length of Day
11h 16m
New Moon, 0% of the Moon is Illuminated
Oct 15
New Moon
Oct 21
First Quarter
Oct 29
Full
Nov 6
Last Quarter
Nov 13
New

Hourly Weather History & Observations

Time (PDT) Temp. Dew Point Humidity Pressure Visibility Wind Dir Wind Speed Gust Speed Precip Events Conditions
12:56 AM 59.9 °F 46.9 °F 62% 29.99 in 10.0 mi South 8.1 mph - N/A   Clear
1:56 AM 59.0 °F 46.9 °F 64% 29.99 in 10.0 mi South 5.8 mph - N/A   Clear
2:56 AM 59.0 °F 46.9 °F 64% 29.97 in 10.0 mi South 8.1 mph - N/A   Clear
3:56 AM 59.9 °F 45.9 °F 60% 29.96 in 10.0 mi SSW 11.5 mph - N/A   Clear
5:56 AM 55.9 °F 45.9 °F 69% 29.96 in 10.0 mi South 6.9 mph - N/A   Clear
6:56 AM 56.8 °F 45.0 °F 64% 29.98 in 10.0 mi South 6.9 mph - N/A   Clear
7:56 AM 59.0 °F 46.9 °F 64% 29.99 in 10.0 mi South 6.9 mph - N/A   Clear
8:56 AM 66.9 °F 46.9 °F 49% 29.99 in 10.0 mi SW 6.9 mph - N/A   Clear
9:56 AM 70.9 °F 43.0 °F 37% 30.00 in 10.0 mi Variable 3.5 mph - N/A   Clear
11:56 AM 77.0 °F 43.0 °F 30% 29.97 in 10.0 mi NE 5.8 mph - N/A   Clear
12:56 PM 77.9 °F 43.0 °F 29% 29.94 in 10.0 mi NNW 3.5 mph - N/A   Clear
1:56 PM 81.9 °F 43.0 °F 25% 29.91 in 10.0 mi East 4.6 mph - N/A   Clear
2:56 PM 81.9 °F 41.9 °F 24% 29.89 in 10.0 mi Calm Calm - N/A   Clear
4:56 PM 81.0 °F 43.0 °F 26% 29.86 in 10.0 mi NE 3.5 mph - N/A   Clear
5:56 PM 79.0 °F 45.0 °F 30% 29.85 in 10.0 mi Calm Calm - N/A   Clear
6:56 PM 73.9 °F 52.0 °F 46% 29.86 in 10.0 mi Calm Calm - 0.00 in   Clear
7:56 PM 68.9 °F 50.0 °F 51% 29.87 in 10.0 mi South 8.1 mph - N/A   Clear
8:56 PM 66.9 °F 50.9 °F 56% 29.88 in 10.0 mi South 5.8 mph - N/A   Clear
9:56 PM 64.9 °F 48.9 °F 56% 29.89 in 10.0 mi SSE 8.1 mph - N/A   Clear
10:56 PM 64.9 °F 46.9 °F 52% 29.87 in 10.0 mi South 8.1 mph - N/A   Clear
11:56 PM 63.0 °F 47.8 °F 58% 29.86 in 10.0 mi SSE 6.9 mph - N/A   Clear